Voltar ao catálogo

STARLINK-3049

AtivoComunicaçõesVLEO
NORAD 49436·PAYLOAD·🇺🇸 United States

Lançado Nov 13, 2021 de Cape Canaveral Space Force Station

Loading…

Próximas Passagens (próximas 24 horas)

TLE

AtualizadoSource: CelesTrak SupGP

Época: Sep 15, 2026, 01:59 UTC

1 49436C 21104AE  26258.08312500 -.00029183  00000+0 -83499-3 0  2584
2 49436  53.1599  75.3753 0001084  75.1656 338.6844 15.35411683    17

Acompanhe STARLINK-3049 em tempo real com AllMySat

Download on the App Store